SCP
0 0 0 0 0 0 0 0 0 0 0 0 0 0 0 0 0 0 0 0 0 0
0 0 0 0 0 0 0 0 0 0 0 0 0 0 0 0 0 0 0 0 0 0
0 0 0 0 0 0 0 0 0 0 0 0 0 0 0 0 0 0 0 0 0 0
0 0 0 0 0 0 0 0 0 0 0 0 0 0 0 0 0 0 0 0 0 0
0 0 0 0 0 0 0 0 0 0 0 0 0 0 0 0 0 0 0 0 0 0
0 0 0 0 0 0 0 0 0 0 0 0 0 0 0 0 0 0 0 0 0 0
0 0 0 0 0 0 0 0 0 0 0 0 0 0 0 0 0 0 0 0 0 0
0 0 0 0 0 0 0 0 0 0 0 0 0 0 0 0 0 0 0 0 0 0
0 0 0 0 0 0 0 0 0 0 0 0 0 0 0 0 0 0 0 0 0 0
0 0 0 0 0 0 0 0 0 0 0 0 0 0 0 0 0 0 0 0 0 0
0 0 0 0 0 0 0 0 0 0 0 0 0 0 0 0 0 0 0 0 0 0
0 0 0 0 0 0 0 0 0 0 0 0 0 0 0 0 0 0 0 0 0 0
0 0 0 0 0 0 0 0 0 0 0 0 0 0 0 0 0 0 0 0 0 0
0 0 0 0 0 0 0 0 0 0 0 0 0 0 0 0 0 0 0 0 0 0
Wind_Speed_500mb
47 41 39 32 25 17 10 5 1 7 17 24 26 26 30 32 29 24 22 24 22 18
50 41 40 35 25 19 12 7 5 9 17 22 23 26 33 29 23 19 19 20 22 26
48 43 42 36 28 21 14 12 12 14 18 21 29 31 31 25 20 18 19 20 25 28
51 49 44 36 29 22 17 15 15 17 19 25 30 30 24 18 15 15 19 23 24 25
54 48 44 37 31 24 20 15 17 20 23 29 31 25 18 14 16 20 22 24 24 25
55 50 43 36 30 25 21 17 17 18 24 28 22 14 14 14 16 18 20 24 27 30
58 49 42 38 35 28 22 19 15 20 23 16 8 9 13 16 19 21 23 25 26 22
53 46 42 42 34 28 22 13 15 17 11 5 6 11 15 20 23 23 20 18 18 17
55 47 47 41 36 28 16 9 10 10 5 6 7 14 19 19 18 19 18 18 18 13
63 58 52 43 36 25 15 10 12 8 7 5 7 11 12 13 14 17 19 20 18 16
68 58 51 43 33 20 13 11 12 12 9 4 1 5 10 10 10 13 19 20 20 20
64 58 51 42 29 22 15 15 19 14 11 4 2 3 8 10 9 12 13 17 17 21
63 58 50 38 28 20 17 20 18 16 10 7 5 5 5 8 10 11 10 13 18 24
62 53 43 35 25 21 23 22 22 17 13 9 8 6 7 10 12 10 10 13 16 21
Wind_Direction_500mb
205 204 197 194 185 183 174 164 223 328 334 337 335 338 350 343 335 323 319 323 331 342
204 201 199 195 193 196 192 208 250 304 322 327 331 339 343 336 327 318 319 323 332 338
206 199 198 199 200 203 210 233 260 296 320 327 331 333 335 331 317 312 315 321 327 329
200 196 197 200 205 212 223 238 262 289 310 327 333 336 335 331 319 317 321 322 324 331
199 198 196 202 209 215 225 249 279 294 316 325 329 328 332 332 326 323 323 324 330 332
196 194 199 206 214 219 232 252 277 298 315 316 318 328 333 334 332 330 329 327 326 324
195 196 205 211 215 226 233 253 273 307 308 304 324 329 334 332 327 327 325 325 328 338
196 200 214 211 215 225 230 258 292 305 281 298 315 322 330 332 331 339 344 343 343 351
200 209 209 211 217 221 220 254 294 275 249 267 311 333 338 349 0 15 33 36 26 29
205 211 207 208 213 204 216 270 267 204 213 250 327 342 359 11 21 38 32 27 22 20
202 202 201 204 194 200 218 239 187 185 205 223 320 23 13 23 29 26 15 30 34 26
202 201 200 191 187 198 214 188 186 197 191 193 150 61 49 41 36 12 24 27 23 10
200 201 188 183 185 198 189 187 197 189 190 181 159 124 70 53 58 45 41 24 8 358
192 184 178 180 188 184 181 189 185 183 181 172 154 116 93 80 73 58 21 7 357 350
Wind_Speed_850mb
47 41 39 32 25 17 10 5 1 7 17 24 26 26 30 32 29 24 22 24 22 18
50 41 40 35 25 19 12 7 5 9 17 22 23 26 33 29 23 19 19 20 22 26
48 43 42 36 28 21 14 12 12 14 18 21 29 31 31 25 20 18 19 20 25 28
51 49 44 36 29 22 17 15 15 17 19 25 30 30 24 18 15 15 19 23 24 25
54 48 44 37 31 24 20 15 17 20 23 29 31 25 18 14 16 20 22 24 24 25
55 50 43 36 30 25 21 17 17 18 24 28 22 14 14 14 16 18 20 24 27 30
58 49 42 38 35 28 22 19 15 20 23 16 8 9 13 16 19 21 23 25 26 22
53 46 42 42 34 28 22 13 15 17 11 5 6 11 15 20 23 23 20 18 18 17
55 47 47 41 36 28 16 9 10 10 5 6 7 14 19 19 18 19 18 18 18 13
63 58 52 43 36 25 15 10 12 8 7 5 7 11 12 13 14 17 19 20 18 16
68 58 51 43 33 20 13 11 12 12 9 4 1 5 10 10 10 13 19 20 20 20
64 58 51 42 29 22 15 15 19 14 11 4 2 3 8 10 9 12 13 17 17 21
63 58 50 38 28 20 17 20 18 16 10 7 5 5 5 8 10 11 10 13 18 24
62 53 43 35 25 21 23 22 22 17 13 9 8 6 7 10 12 10 10 13 16 21
Wind_Direction_850mb
205 204 197 194 185 183 174 164 223 328 334 337 335 338 350 343 335 323 319 323 331 342
204 201 199 195 193 196 192 208 250 304 322 327 331 339 343 336 327 318 319 323 332 338
206 199 198 199 200 203 210 233 260 296 320 327 331 333 335 331 317 312 315 321 327 329
200 196 197 200 205 212 223 238 262 289 310 327 333 336 335 331 319 317 321 322 324 331
199 198 196 202 209 215 225 249 279 294 316 325 329 328 332 332 326 323 323 324 330 332
196 194 199 206 214 219 232 252 277 298 315 316 318 328 333 334 332 330 329 327 326 324
195 196 205 211 215 226 233 253 273 307 308 304 324 329 334 332 327 327 325 325 328 338
196 200 214 211 215 225 230 258 292 305 281 298 315 322 330 332 331 339 344 343 343 351
200 209 209 211 217 221 220 254 294 275 249 267 311 333 338 349 0 15 33 36 26 29
205 211 207 208 213 204 216 270 267 204 213 250 327 342 359 11 21 38 32 27 22 20
202 202 201 204 194 200 218 239 187 185 205 223 320 23 13 23 29 26 15 30 34 26
202 201 200 191 187 198 214 188 186 197 191 193 150 61 49 41 36 12 24 27 23 10
200 201 188 183 185 198 189 187 197 189 190 181 159 124 70 53 58 45 41 24 8 358
192 184 178 180 188 184 181 189 185 183 181 172 154 116 93 80 73 58 21 7 357 350